[[{"header":{"parameterUnit":"m.s-1","parameterCategory":1,"la1":30.2991,"la2":30.254,"lo1":-89.0895,"lo2":-89.0444,"dy":0.0017,"dx":0.0017,"nx":28,"ny":28,"refTime":"2025-07-22T09:00:00:Z","depth":0,"parameterNumber":2,"parameterNumberName":"U-component_of_WINDS"},"data":[0,0,0,0,0,0,0,0,0,0,0,0,0,0,0,0,0,0,0,0,0,0,0,0,0,0,0,0,0,0,0,0,0,0,0,0,0,0,0,0,0,0,0,0,0,0,0,0,0,0,0,0,0,0,0,0,0,0,1.494,1.494,0,1.4988,1.4989,1.4989,1.4975,1.4974,1.4973,1.4972,1.5023,1.5025,1.5027,0,0,0,0,0,0,0,0,0,0,0,0,0,1.4836,1.4838,1.494,1.494,1.4941,1.4988,1.4989,1.4989,1.4975,1.4974,1.4973,1.4972,1.5022,1.5024,1.5027,0,0,0,0,0,0,0,0,0,0,0,0,0,1.4882,1.4839,1.494,1.4939,1.494,1.4988,1.4989,1.499,1.4976,1.4974,1.4973,1.4971,1.5021,1.5024,1.5028,1.5079,0,0,1.5038,1.504,0,0,0,0,0,0,0,0,1.488,1.4886,1.4939,1.494,1.494,1.4974,1.4971,1.502,1.4976,1.4962,1.4972,1.497,1.5008,1.5012,1.5025,1.5081,1.5083,1.5038,1.504,1.5042,1.5043,0,0,0,0,0,0,0,1.4877,1.4884,1.4959,1.494,1.494,1.4937,1.4942,1.498,1.4993,1.4963,1.4962,1.4968,1.5008,1.5021,1.5026,1.5084,1.5038,1.5041,1.5043,1.5045,1.5187,1.5189,0,0,0,0,0,0,1.4873,1.4882,1.4957,1.496,1.4906,1.4941,1.4946,1.4965,1.4992,1.4995,1.4969,1.4967,1.5016,1.5022,1.5027,1.5091,1.5042,1.5045,1.5047,1.5185,1.5188,1.5189,0,0,0,0,0,0,1.4871,1.488,1.4955,1.4921,1.493,1.4944,1.4965,1.4966,1.498,1.4997,1.4999,1.4981,1.5015,1.5023,1.5067,1.5092,1.5047,1.505,1.5183,1.5186,1.5189,1.5217,0,0,0,0,0,0,1.4868,1.4879,1.4898,1.4921,1.4932,1.4993,1.4967,1.4969,1.4986,1.4984,1.5008,1.5011,1.5015,1.5062,1.507,1.5096,1.5052,1.5181,1.5185,1.5188,1.5214,1.522,1.5225,0,0,0,0,0,1.4864,1.4904,1.4899,1.4909,1.4956,1.4995,1.5001,1.5004,1.4988,1.5008,1.5019,1.501,1.5088,1.5066,1.5075,1.5103,1.518,1.5184,1.5187,1.5211,1.5219,1.5225,0,0,0,0,0,0,1.4884,1.4907,1.4902,1.4951,1.4971,1.4992,1.5018,1.5012,1.5038,1.5035,1.5037,1.5043,1.5089,1.51,1.5076,1.5155,1.5131,1.5137,1.5146,1.5154,1.5159,1.5156,1.5055,0,0,0,0,0,1.4894,1.4923,1.4942,1.4983,1.4993,1.5004,1.502,1.5021,1.5042,1.5051,1.5065,1.5087,1.5116,1.5135,1.5163,1.5215,1.5221,1.5238,1.5244,1.5249,1.5255,1.5285,1.5293,1.5202,1.5202,1.5202,0,0,1.4915,1.4931,1.4949,1.4987,1.5003,1.5034,1.5011,1.5044,1.5067,1.5056,1.5099,1.511,1.5134,1.5183,1.5205,1.5194,1.5281,1.5254,1.5258,1.5261,1.529,1.5298,1.5306,1.5205,1.5204,1.5204,0,0,1.4969,1.4984,1.502,1.5037,1.5061,1.5068,1.5077,1.5099,1.5106,1.5149,1.5142,1.517,1.522,1.5238,1.5253,1.5315,1.5309,1.5324,1.5355,1.5385,1.5392,1.5398,1.5422,1.543,1.5329,1.5329,1.5329,0,1.4992,1.5038,1.504,1.5074,1.5091,1.5083,1.512,1.5136,1.5168,1.5181,1.5168,1.5231,1.5247,1.53,1.5316,1.5328,1.5339,1.5322,1.539,1.5397,1.5403,1.5426,1.5434,1.5331,1.5331,1.5331,1.5331,0,1.5066,1.5098,1.5124,1.5156,1.5176,1.5212,1.522,1.524,1.5239,1.5248,1.5293,1.5311,1.5343,1.5355,1.5354,1.5409,1.5402,1.5389,1.5366,1.5413,1.5435,1.5444,1.5334,1.5333,1.5333,1.5332,0,0,1.5135,1.5167,1.5177,1.5192,1.5218,1.5243,1.5279,1.531,1.5328,1.5351,1.5382,1.5425,1.5414,1.5432,1.5433,1.5458,1.5508,1.5443,1.5444,1.5456,1.5572,1.5582,1.5592,1.5504,1.5505,1.5507,1.557,0,1.5192,1.5255,1.5258,1.5316,1.5346,1.5338,1.5369,1.539,1.5398,1.5426,1.5436,1.5467,1.5449,1.546,1.5485,1.5497,1.5532,1.5492,1.5534,1.5535,1.553,1.5603,1.5614,1.5673,1.5579,1.558,1.5581,0,1.5268,1.5294,1.5354,1.5377,1.539,1.5418,1.5448,1.5474,1.5497,1.5501,1.5522,1.5519,1.5557,1.5532,1.5584,1.5557,1.5574,1.5583,1.5585,1.559,1.5562,1.5612,1.5692,1.5701,1.5594,1.5593,1.5592,0,1.5315,1.5363,1.5406,1.5419,1.5447,1.5467,1.5479,1.5501,1.552,1.5546,1.5558,1.5588,1.5605,1.5628,1.5635,1.5615,1.5688,1.5663,1.5694,1.5694,1.5711,1.571,1.5797,1.5719,1.5719,1.5719,1.5719,0,1.538,1.5418,1.5428,1.5454,1.5497,1.55,1.5542,1.5553,1.5572,1.5602,1.5596,1.5624,1.563,1.5659,1.5664,1.5708,1.5715,1.5721,1.5722,1.5723,1.5722,1.5735,1.5732,1.5722,1.5721,1.5721,1.572,0,1.5439,1.5447,1.5494,1.5516,1.5523,1.5553,1.5573,1.5599,1.5607,1.5644,1.5653,1.5666,1.5701,1.5709,1.5749,1.5753,1.5806,1.5802,1.5798,1.5798,1.583,1.5828,1.5929,1.5944,1.5855,1.5856,1.5857,0,1.5481,1.551,1.5536,1.5555,1.5568,1.5599,1.5619,1.5623,1.5644,1.5672,1.5695,1.5729,1.5756,1.5811,1.5825,1.5856,1.5854,1.5888,1.5859,1.5859,1.5857,1.5856,1.586,1.5894,1.5895,1.5895,1.5896,0,1.5555,1.5558,1.5586,1.5616,1.564,1.5663,1.5686,1.5702,1.571,1.5733,1.5768,1.5789,1.5831,1.5865,1.5897,1.591,1.5906,1.5905,1.5914,1.5916,1.5913,1.5917,1.5815,1.5903,1.5902,1.5902,1.5901,1.5901,1.5609,1.5635,1.5657,1.5689,1.5706,1.5728,1.5754,1.5765,1.5794,1.5829,1.5829,1.5868,1.5891,1.5933,1.5949,1.5979,1.5969,1.5982,1.5986,1.599,1.5994,1.5907,1.5985,1.5985,1.5985,1.5984,1.5984,0,1.5684,1.5698,1.5727,1.576,1.5785,1.5777,1.5802,1.5824,1.5858,1.5879,1.5906,1.5947,1.598,1.5997,1.603,1.6051,1.605,1.606,1.6059,1.6063,1.6,1.5989,1.6061,1.6061,1.6061,1.6061,1.6061,1.6061,1.5727,1.5771,1.5776,1.5829,1.5843,1.588,1.5896,1.5916,1.5934,1.5979,1.6007,1.6017,1.6037,1.6072,1.6102,1.6106,1.6119,1.6131,1.6134,1.6075,1.6067,1.606,1.605,1.6133,1.6134,1.6195,1.6196,1.6196]},{"header":{"parameterUnit":"m.s-1","parameterCategory":1,"la1":30.2991,"la2":30.254,"lo1":-89.0895,"lo2":-89.0444,"dy":0.0017,"dx":0.0017,"nx":28,"ny":28,"refTime":"2025-07-22T09:00:00:Z","depth":0,"parameterNumber":3,"parameterNumberName":"V-component_of_WINDS"},"data":[0,0,0,0,0,0,0,0,0,0,0,0,0,0,0,0,0,0,0,0,0,0,0,0,0,0,0,0,0,0,0,0,0,0,0,0,0,0,0,0,0,0,0,0,0,0,0,0,0,0,0,0,0,0,0,0,0,0,-1.8591,-1.8592,0,-1.8686,-1.8687,-1.8688,-1.8709,-1.8708,-1.8707,-1.8707,-1.8804,-1.8807,-1.881,0,0,0,0,0,0,0,0,0,0,0,0,0,-1.8428,-1.8431,-1.8591,-1.8592,-1.8594,-1.8686,-1.8687,-1.8688,-1.8709,-1.8708,-1.8707,-1.8706,-1.8803,-1.8806,-1.881,0,0,0,0,0,0,0,0,0,0,0,0,0,-1.8509,-1.8432,-1.8591,-1.8615,-1.8618,-1.8686,-1.8687,-1.8689,-1.8709,-1.8708,-1.8707,-1.8706,-1.8801,-1.8806,-1.8811,-1.8861,0,0,-1.8826,-1.8828,0,0,0,0,0,0,0,0,-1.8504,-1.8515,-1.861,-1.8613,-1.8617,-1.8684,-1.8665,-1.8747,-1.8709,-1.8674,-1.8707,-1.8705,-1.8765,-1.8773,-1.8793,-1.8866,-1.887,-1.8826,-1.8829,-1.8831,-1.8832,0,0,0,0,0,0,0,-1.8498,-1.8511,-1.8629,-1.8611,-1.8616,-1.8621,-1.8631,-1.8681,-1.8724,-1.8677,-1.8679,-1.869,-1.8766,-1.8788,-1.8795,-1.8872,-1.8826,-1.883,-1.8833,-1.8835,-1.8992,-1.8993,0,0,0,0,0,0,-1.8489,-1.8506,-1.8626,-1.8632,-1.8557,-1.8625,-1.8636,-1.8664,-1.8724,-1.8732,-1.8691,-1.8691,-1.878,-1.8789,-1.8799,-1.8862,-1.8831,-1.8836,-1.8838,-1.8991,-1.8992,-1.8994,0,0,0,0,0,0,-1.8485,-1.8499,-1.8622,-1.8569,-1.8585,-1.8629,-1.8659,-1.8666,-1.8688,-1.8734,-1.8742,-1.8705,-1.878,-1.8792,-1.8846,-1.8866,-1.8838,-1.8842,-1.8989,-1.8991,-1.8993,-1.8989,0,0,0,0,0,0,-1.848,-1.8498,-1.8517,-1.8569,-1.8588,-1.8667,-1.8661,-1.8669,-1.8696,-1.8697,-1.8749,-1.8757,-1.878,-1.8838,-1.8851,-1.8872,-1.8846,-1.8988,-1.899,-1.8992,-1.8988,-1.8991,-1.8994,0,0,0,0,0,-1.8474,-1.8512,-1.8518,-1.8532,-1.8613,-1.8668,-1.8679,-1.8705,-1.8697,-1.8718,-1.8747,-1.8755,-1.8862,-1.8844,-1.8858,-1.8881,-1.8986,-1.8989,-1.8992,-1.8987,-1.899,-1.8993,0,0,0,0,0,0,-1.8461,-1.852,-1.8527,-1.8583,-1.862,-1.8672,-1.8698,-1.8708,-1.8748,-1.8747,-1.8778,-1.8789,-1.8842,-1.8867,-1.8846,-1.8933,-1.8924,-1.893,-1.8915,-1.8919,-1.8922,-1.8914,-1.885,0,0,0,0,0,-1.8465,-1.8504,-1.8553,-1.8598,-1.8617,-1.8654,-1.8679,-1.8696,-1.8736,-1.8752,-1.8786,-1.8825,-1.8867,-1.8894,-1.8936,-1.8992,-1.9004,-1.9015,-1.9017,-1.9019,-1.9024,-1.9056,-1.9061,-1.9003,-1.9003,-1.9003,0,0,-1.8472,-1.8509,-1.8532,-1.8596,-1.8628,-1.8668,-1.8667,-1.871,-1.8741,-1.8759,-1.8812,-1.8838,-1.8884,-1.8939,-1.8965,-1.8961,-1.9043,-1.9023,-1.9024,-1.9028,-1.9059,-1.9065,-1.907,-1.9005,-1.9004,-1.9004,0,0,-1.8507,-1.8539,-1.858,-1.8611,-1.8659,-1.8684,-1.8693,-1.8744,-1.8762,-1.8816,-1.883,-1.8867,-1.8939,-1.8971,-1.8997,-1.9045,-1.9054,-1.9058,-1.9072,-1.9103,-1.9107,-1.9112,-1.9129,-1.9135,-1.9062,-1.9062,-1.9062,0,-1.8511,-1.8573,-1.86,-1.8642,-1.867,-1.8688,-1.873,-1.876,-1.8818,-1.8837,-1.8832,-1.8924,-1.8956,-1.9019,-1.9031,-1.9051,-1.9063,-1.9052,-1.9105,-1.9109,-1.9113,-1.913,-1.9137,-1.9062,-1.9062,-1.9062,-1.9062,0,-1.8575,-1.8618,-1.8645,-1.8701,-1.8732,-1.8774,-1.8808,-1.8836,-1.885,-1.8875,-1.893,-1.897,-1.9019,-1.9036,-1.905,-1.9101,-1.9098,-1.9098,-1.909,-1.9119,-1.9135,-1.9142,-1.9062,-1.9062,-1.9062,-1.9062,0,0,-1.8604,-1.8675,-1.8684,-1.871,-1.8764,-1.8798,-1.8841,-1.889,-1.8914,-1.8954,-1.8991,-1.9052,-1.9053,-1.9082,-1.91,-1.9127,-1.9163,-1.9125,-1.9127,-1.9131,-1.9223,-1.9222,-1.9229,-1.917,-1.9171,-1.9172,-1.9219,0,-1.8645,-1.8722,-1.8748,-1.8812,-1.8853,-1.8871,-1.8908,-1.8946,-1.8971,-1.9009,-1.9036,-1.9079,-1.9077,-1.9095,-1.9123,-1.9153,-1.9182,-1.915,-1.9204,-1.9206,-1.9192,-1.9237,-1.9236,-1.9279,-1.9226,-1.9227,-1.9227,0,-1.8704,-1.8745,-1.8813,-1.8863,-1.888,-1.8914,-1.8961,-1.8997,-1.904,-1.9056,-1.9089,-1.9105,-1.9151,-1.914,-1.9204,-1.9182,-1.9206,-1.9224,-1.9226,-1.9232,-1.9218,-1.9244,-1.9293,-1.9299,-1.9238,-1.9237,-1.9236,0,-1.8718,-1.879,-1.8841,-1.8862,-1.8921,-1.8944,-1.897,-1.9012,-1.904,-1.9081,-1.91,-1.9146,-1.9172,-1.9207,-1.9236,-1.9225,-1.9297,-1.9288,-1.9312,-1.9312,-1.9327,-1.9325,-1.9379,-1.9342,-1.9342,-1.9342,-1.9342,0,-1.8761,-1.8802,-1.8848,-1.8879,-1.8925,-1.8955,-1.9,-1.9027,-1.9065,-1.9101,-1.912,-1.9154,-1.919,-1.9229,-1.9251,-1.9301,-1.9312,-1.9327,-1.9332,-1.9325,-1.9323,-1.9341,-1.9339,-1.9344,-1.9343,-1.9343,-1.9342,0,-1.8785,-1.8817,-1.8873,-1.8924,-1.8938,-1.8971,-1.9015,-1.9046,-1.9072,-1.9118,-1.913,-1.9171,-1.9218,-1.925,-1.931,-1.9325,-1.9379,-1.9384,-1.9365,-1.9367,-1.939,-1.9387,-1.9457,-1.9468,-1.9423,-1.9424,-1.9424,0,-1.8811,-1.8843,-1.8898,-1.8924,-1.8949,-1.8991,-1.902,-1.905,-1.908,-1.9131,-1.9156,-1.9204,-1.9244,-1.9318,-1.9353,-1.94,-1.9406,-1.9427,-1.9413,-1.9405,-1.9406,-1.9404,-1.9408,-1.9429,-1.943,-1.943,-1.943,0,-1.8853,-1.8867,-1.8908,-1.8954,-1.8988,-1.9026,-1.9065,-1.9085,-1.9122,-1.9154,-1.9202,-1.9233,-1.9295,-1.9343,-1.9392,-1.9419,-1.9431,-1.9435,-1.9443,-1.9436,-1.9423,-1.943,-1.9371,-1.9433,-1.9432,-1.9432,-1.9432,-1.9432,-1.8878,-1.8908,-1.8951,-1.8996,-1.9028,-1.9064,-1.9095,-1.9126,-1.9166,-1.9219,-1.9234,-1.9284,-1.9327,-1.9395,-1.9423,-1.9463,-1.9461,-1.9473,-1.9476,-1.9478,-1.9478,-1.9417,-1.9472,-1.9472,-1.9472,-1.9472,-1.9472,0,-1.8922,-1.8951,-1.8992,-1.9045,-1.908,-1.9089,-1.9132,-1.9161,-1.9204,-1.9243,-1.9283,-1.9338,-1.9385,-1.9424,-1.9472,-1.9496,-1.9503,-1.9508,-1.9506,-1.9513,-1.9477,-1.9465,-1.9502,-1.9502,-1.9502,-1.9502,-1.9502,-1.9502,-1.8948,-1.8999,-1.9018,-1.9085,-1.9114,-1.9163,-1.9187,-1.922,-1.9251,-1.9313,-1.9351,-1.9377,-1.9416,-1.9467,-1.951,-1.9521,-1.9538,-1.9541,-1.9553,-1.9518,-1.9515,-1.9512,-1.9501,-1.9545,-1.9545,-1.9585,-1.9586,-1.9586]}]]